Regional Weather Roundup
Issued by NWS Northern Indiana

Home | Current Version | Previous Version | Text Only | Print | Product List | Glossary Off
Versions: 1 2 3 4 5 6 7 8 9 10 11 12 13 14 15 16 17 18 19 20 21 22 23 24 25 26 27 28 29 30 31 32 33 34 35 36 37 38 39 40 41 42 43 44 45 46 47 48 49 50

000
ASUS43 KIWX 171200
RWRIWX

KIWX WEATHER ROUNDUP
NATIONAL WEATHER SERVICE NORTHERN INDIANA
800 AM EDT WED SEP 17 2014

NOTE: "FAIR" INDICATES FEW OR NO CLOUDS BELOW 12,000 FEET WITH NO
SIGNIFICANT WEATHER AND/OR OBSTRUCTIONS TO VISIBILITY.

* THESE STATIONS ARE NOT UNDER NWS QUALITY CONTROL. THEY ALSO MAY NOT
  REPORT WEATHER SUCH AS PRECIPITATION OR FOG.

INZ001>027-171300-
NORTHERN INDIANA

CITY           SKY/WX    TMP DP  RH WIND       PRES   REMARKS
GARY*          MOCLDY    45  43  93 S5        30.07R
VALPARAISO     FOG       43  41  93 CALM      30.07S VSB<1/4
6HR MIN TEMP:  41; 6HR MAX TEMP:  46;

KNOX*          CLEAR     41  40  95 CALM      30.07R
6HR MIN TEMP:  41; 6HR MAX TEMP:  89;

SOUTH BEND     PTCLDY    45  41  86 CALM      30.08R
6HR MIN TEMP:  42; 6HR MAX TEMP:  46;

ELKHART*       CLEAR     41  41 100 CALM      30.08R
GOSHEN         PTCLDY    43  41  93 CALM      30.07S
6HR MIN TEMP:  41; 6HR MAX TEMP:  46;

WARSAW*        MOCLDY    41  41 100 CALM      30.07S FOG
ANGOLA*        CLEAR     41  41 100 CALM      30.08R
FORT WAYNE     MOCLDY    44  42  93 CALM      30.09R
6HR MIN TEMP:  42; 6HR MAX TEMP:  47;


$$
INZ028>050-171300-
CENTRAL INDIANA

CITY           SKY/WX    TMP DP  RH WIND       PRES   REMARKS
LAFAYETTE      FOG       43  43 100 CALM      30.08R VSB<1/4
6HR MIN TEMP:  42; 6HR MAX TEMP:  46;

KOKOMO*          N/A     45  43  93 CALM      30.08S VSB 1/2
6HR MIN TEMP:  43; 6HR MAX TEMP:  46;

MUNCIE*        CLEAR     42  41  96 CALM      30.08S FOG
6HR MIN TEMP:  41; 6HR MAX TEMP:  48;

INDIANAPOLIS   PTCLDY    48  46  93 CALM      30.07S FOG
6HR MIN TEMP:  45; 6HR MAX TEMP:  51;


$$
MIZ043>046-050>051-056>058-064>065-071>073-077>080-171300-
SOUTHWEST LOWER MICHIGAN

CITY           SKY/WX    TMP DP  RH WIND       PRES   REMARKS
BATTLE CREEK   CLEAR     41  39  93 CALM      30.07R
6HR MIN TEMP:  40; 6HR MAX TEMP:  43;

BENTON HARBOR  CLEAR     39  39 100 CALM      30.07R
6HR MIN TEMP:  37; 6HR MAX TEMP:  41;

COLDWATER*     CLEAR     39  38  98 CALM      30.08R
6HR MIN TEMP:  38; 6HR MAX TEMP:  45;

HILLSDALE*     CLEAR     37  37 100 CALM      30.07R
HOLLAND        CLEAR     44  40  85 S3        30.07R
6HR MIN TEMP:  42; 6HR MAX TEMP:  45;

GRAND RAPIDS   PTCLDY    42  39  89 SE5       30.06R
6HR MIN TEMP:  40; 6HR MAX TEMP:  44;

KALAMAZOO      CLEAR     40  39  97 CALM      30.08R
6HR MIN TEMP:  38; 6HR MAX TEMP:  43;

STURGIS*       CLEAR     41  39  93 CALM      30.07S FOG
THREE RIVERS*  FOG       41  41  98 CALM      30.08R VSB 1/4
6HR MIN TEMP:  40; 6HR MAX TEMP:  45;


$$
OHZ001>008-015>018-024>025-171300-
NORTHWEST OHIO

CITY           SKY/WX    TMP DP  RH WIND       PRES   REMARKS
DEFIANCE       CLEAR     42  39  89 CALM      30.09R FOG
6HR MIN TEMP:  41; 6HR MAX TEMP:  46;

FINDLAY        CLEAR     44  42  93 S3        30.07S
6HR MIN TEMP:  42; 6HR MAX TEMP:  50;

TOLEDO EXPRESS CLEAR     42  41  96 CALM      30.07S
6HR MIN TEMP:  41; 6HR MAX TEMP:  47;

TOLEDO METCALF CLEAR     45  42  89 CALM      30.08S
6HR MIN TEMP:  44; 6HR MAX TEMP:  51;

LIMA           CLEAR     46  44  93 S5        30.08S FOG
6HR MIN TEMP:  42; 6HR MAX TEMP:  49;


$$
&&



USA.gov is the U.S. government's official web portal to all federal, state and local government web resources and services.